Grayling, MI

9:54 PM EDT on June 24, 2017 (GMT -0400)
Grayling

Weather History for KGOV - December, 2012

Change the Weather History Date:

Tuesday, December 11, 2012

  Actual Average (KHTL) Record (KHTL)
Temperature  
Mean Temperature 19 °F -  
Max Temperature 31 °F 30 °F 48 °F (1979)
Min Temperature 7 °F 17 °F -16 °F (1977)
Degree Days  
Heating Degree Days 46    
Moisture  
Dew Point 19 °F    
Average Humidity 87    
Maximum Humidity 99    
Minimum Humidity 74    
Precipitation  
Precipitation 0.00 in - - ()
Sea Level Pressure  
Sea Level Pressure 29.91 in    
Wind  
Wind Speed 3 mph (South)    
Max Wind Speed 10 mph    
Max Gust Speed 16 mph    
Visibility 8 miles    
Events Snow    
Averages and records for this station are not official NWS values.
T = Trace of Precipitation, MM = Missing Value Source: NWS Daily Summary

Daily Weather History Graph

Daily Weather History Graph

Search for Another Location

Airport or City:

Trip Planner

Search our weather history database for the weather conditions in past years. The results will help you decide how hot, cold, wet, or windy it might be!

Date:

Astronomy

Dec. 11, 2012 Rise Set
Actual Time 8:06 AM EST 4:58 PM EST
Civil Twilight 7:32 AM EST 5:31 PM EST
Nautical Twilight 6:56 AM EST 6:08 PM EST
Astronomical Twilight 6:20 AM EST 6:44 PM EST
Moon 5:57 AM EST (12/11) 3:38 PM EST (12/11)
Length of Visible Light 9h 59m
Length of Day
8h 52m
Waning Crescent, 4% of the Moon is Illuminated
Dec 11
Waning Crescent
Dec 13
New
Dec 20
First Quarter
Dec 28
Full
Jan 4
Last Quarter

Hourly Weather History & Observations

Time (EST) Temp. Windchill Dew Point Humidity Pressure Visibility Wind Dir Wind Speed Gust Speed Precip Events Conditions
12:15 AM 20.7 °F - 16.7 °F 85% 29.87 in 10.0 mi Calm Calm - N/A   Overcast
12:35 AM 21.2 °F - 15.8 °F 80% 29.87 in 10.0 mi Calm Calm - N/A   Overcast
12:55 AM 21.0 °F 16.2 °F 16.7 °F 83% 29.87 in 10.0 mi NW 3.5 mph - N/A   Overcast
1:15 AM 20.1 °F - 15.8 °F 83% 29.86 in 10.0 mi Calm Calm - N/A   Overcast
1:31 AM 20.7 °F 15.8 °F 16.0 °F 82% 29.84 in 10.0 mi NNW 3.5 mph - N/A   Overcast
1:51 AM 21.0 °F - 16.5 °F 83% 29.85 in 10.0 mi Calm Calm - N/A   Overcast
2:11 AM 20.7 °F - 16.7 °F 85% 29.87 in 10.0 mi Calm Calm - N/A   Overcast
2:31 AM 21.0 °F - 16.7 °F 83% 29.88 in 10.0 mi Calm Calm - N/A   Overcast
2:51 AM 21.0 °F - 16.7 °F 83% 29.89 in 10.0 mi Calm Calm - N/A   Overcast
3:11 AM 21.0 °F - 16.7 °F 83% 29.89 in 10.0 mi Calm Calm - N/A   Overcast
3:31 AM 20.3 °F - 16.5 °F 85% 29.89 in 10.0 mi Calm Calm - N/A   Overcast
3:51 AM 21.0 °F - 16.3 °F 82% 29.89 in 10.0 mi Calm Calm - N/A   Overcast
4:11 AM 18.3 °F 13.1 °F 14.7 °F 86% 29.88 in 10.0 mi SE 3.5 mph - N/A   Scattered Clouds
4:31 AM 18.3 °F - 16.3 °F 92% 29.88 in 10.0 mi Calm Calm - N/A   Clear
4:51 AM 14.7 °F - 13.1 °F 93% 29.89 in 10.0 mi Calm Calm - N/A   Clear
5:12 AM 13.5 °F - 12.2 °F 95% 29.89 in 7.0 mi Calm Calm - N/A   Clear
5:32 AM 12.7 °F - 11.3 °F 94% 29.89 in 10.0 mi Calm Calm - N/A   Clear
5:52 AM 10.6 °F - 8.6 °F 92% 29.90 in 10.0 mi Calm Calm - N/A   Clear
6:12 AM 10.9 °F - 9.3 °F 93% 29.90 in 10.0 mi Calm Calm - N/A   Clear
6:32 AM 10.4 °F - 8.6 °F 92% 29.90 in 3.0 mi Calm Calm - N/A   Clear
6:52 AM 9.7 °F - 7.7 °F 92% 29.91 in 1.5 mi Calm Calm - N/A   Mist
7:12 AM 8.8 °F - 6.6 °F 91% 29.91 in 10.0 mi Calm Calm - N/A   Clear
7:32 AM 8.4 °F - 6.4 °F 92% 29.93 in 1.5 mi Calm Calm - N/A   Mist
7:52 AM 8.4 °F - 5.9 °F 89% 29.93 in 10.0 mi Calm Calm - N/A   Clear
8:13 AM 7.9 °F - 5.4 °F 89% 29.94 in 1.8 mi Calm Calm - N/A   Mist
8:33 AM 8.4 °F - 6.3 °F 91% 29.94 in 4.0 mi Calm Calm - N/A   Clear
9:13 AM 8.4 °F - 5.9 °F 89% 29.93 in 10.0 mi Calm Calm - N/A   Mostly Cloudy
9:33 AM 10.9 °F - 9.0 °F 92% 29.94 in 10.0 mi Calm Calm - N/A   Scattered Clouds
9:53 AM 15.4 °F - 14.4 °F 95% 29.94 in 10.0 mi Calm Calm - N/A   Scattered Clouds
10:13 AM 16.2 °F - 15.3 °F 96% 29.94 in 10.0 mi Calm Calm - N/A   Scattered Clouds
10:33 AM 21.6 °F 14.0 °F 21.2 °F 99% 29.93 in 10.0 mi South 5.8 mph - N/A   Scattered Clouds
10:53 AM 22.1 °F 15.9 °F 21.9 °F 99% 29.93 in 10.0 mi SSE 4.6 mph - N/A   Scattered Clouds
11:14 AM 23.5 °F 17.6 °F 22.5 °F 96% 29.92 in 10.0 mi SE 4.6 mph - N/A   Clear
11:34 AM 26.1 °F 19.4 °F 20.1 °F 78% 29.92 in 10.0 mi SSE 5.8 mph - N/A   Clear
11:54 AM 28.4 °F 23.3 °F 21.0 °F 74% 29.91 in 10.0 mi SSW 4.6 mph - N/A   Scattered Clouds
12:14 PM 28.4 °F 21.2 °F 21.4 °F 75% 29.90 in 10.0 mi SSW 6.9 mph - N/A   Mostly Cloudy
12:34 PM 28.4 °F 19.1 °F 21.9 °F 77% 29.90 in 10.0 mi SSE 10.4 mph - N/A   Overcast
12:54 PM 28.4 °F 20.4 °F 21.9 °F 77% 29.90 in 10.0 mi SSW 8.1 mph - N/A   Overcast
1:14 PM 28.4 °F 20.4 °F 22.1 °F 77% 29.89 in 10.0 mi South 8.1 mph - N/A   Overcast
1:34 PM 28.4 °F 24.6 °F 22.6 °F 79% 29.89 in 10.0 mi SSW 3.5 mph - N/A   Overcast
1:54 PM 28.9 °F 22.8 °F 22.3 °F 76% 29.89 in 10.0 mi SSW 5.8 mph - N/A   Overcast
2:15 PM 28.8 °F 21.7 °F 22.1 °F 76% 29.89 in 7.0 mi South 6.9 mph - N/A Snow Light Snow
2:35 PM 28.8 °F 20.2 °F 23.0 °F 79% 29.89 in 4.0 mi SSW 9.2 mph - N/A Snow Light Snow
2:55 PM 30.6 °F 21.8 °F 23.5 °F 75% 29.89 in 10.0 mi South 10.4 mph - N/A   Overcast
3:15 PM 31.1 °F 23.7 °F 24.3 °F 76% 29.89 in 10.0 mi SSW 8.1 mph - N/A Snow Light Snow
3:35 PM 29.5 °F 21.1 °F 22.6 °F 76% 29.89 in 10.0 mi South 9.2 mph 16.1 mph N/A   Mostly Cloudy
3:55 PM 28.9 °F 20.4 °F 23.4 °F 80% 29.89 in 10.0 mi South 9.2 mph - N/A   Mostly Cloudy
4:15 PM 28.4 °F 19.7 °F 23.4 °F 81% 29.89 in 10.0 mi South 9.2 mph - N/A   Mostly Cloudy
4:35 PM 28.4 °F 20.4 °F 24.4 °F 85% 29.90 in 10.0 mi South 8.1 mph - N/A   Scattered Clouds
4:55 PM 28.4 °F 21.2 °F 25.5 °F 89% 29.90 in 10.0 mi South 6.9 mph - N/A   Clear
5:11 PM 27.9 °F 20.6 °F 25.3 °F 90% 29.90 in 10.0 mi South 6.9 mph - N/A   Clear
5:31 PM 28.4 °F 22.2 °F 26.4 °F 92% 29.90 in 10.0 mi SSE 5.8 mph - N/A   Mostly Cloudy
5:51 PM 28.4 °F 22.2 °F 26.2 °F 92% 29.90 in 10.0 mi SSE 5.8 mph - N/A   Overcast
6:11 PM 28.4 °F 22.2 °F 25.7 °F 90% 29.90 in 10.0 mi South 5.8 mph - N/A   Overcast
6:31 PM 28.4 °F 22.2 °F 24.1 °F 84% 29.90 in 10.0 mi South 5.8 mph - N/A   Overcast
6:51 PM 28.4 °F 19.7 °F 23.0 °F 80% 29.90 in 10.0 mi South 9.2 mph - N/A   Overcast
7:11 PM 28.4 °F 22.2 °F 23.9 °F 83% 29.91 in 4.0 mi South 5.8 mph - N/A Snow Light Snow
7:31 PM 28.4 °F 21.2 °F 25.7 °F 90% 29.91 in 3.0 mi South 6.9 mph - N/A Snow Light Snow
7:51 PM 28.4 °F 21.2 °F 26.6 °F 93% 29.91 in 3.0 mi South 6.9 mph - N/A Snow Light Snow
8:12 PM 28.4 °F 19.7 °F 26.6 °F 93% 29.91 in 5.0 mi South 9.2 mph - N/A Snow Light Snow
8:32 PM 28.4 °F 19.7 °F 26.6 °F 93% 29.92 in 5.0 mi South 9.2 mph - N/A Snow Light Snow
8:52 PM 28.4 °F 19.7 °F 26.6 °F 93% 29.92 in 3.0 mi South 9.2 mph - N/A Snow Light Snow
9:12 PM 28.4 °F 22.2 °F 26.6 °F 93% 29.93 in 2.5 mi SSW 5.8 mph 11.5 mph N/A Snow Light Snow
9:32 PM 28.4 °F 19.1 °F 27.0 °F 94% 29.93 in 4.0 mi SSW 10.4 mph - N/A Snow Light Snow
9:52 PM 28.4 °F 20.4 °F 25.7 °F 90% 29.94 in 7.0 mi SSW 8.1 mph - N/A Snow Light Snow
10:12 PM 28.4 °F 20.4 °F 25.7 °F 90% 29.94 in 10.0 mi SW 8.1 mph - N/A   Overcast
10:32 PM 28.4 °F 22.2 °F 26.2 °F 92% 29.95 in 7.0 mi SW 5.8 mph - N/A Snow Light Snow
10:52 PM 28.4 °F 19.7 °F 25.5 °F 89% 29.95 in 7.0 mi WSW 9.2 mph - N/A Snow Light Snow
11:13 PM 28.4 °F 21.2 °F 25.3 °F 88% 29.96 in 5.0 mi WSW 6.9 mph - N/A Snow Light Snow
11:33 PM 28.4 °F 23.3 °F 24.6 °F 86% 29.96 in 10.0 mi SW 4.6 mph - N/A   Overcast
11:53 PM 28.4 °F 21.2 °F 24.1 °F 84% 29.97 in 10.0 mi SW 6.9 mph - N/A   Overcast